Location: アルンシュタイン
(50.0000°N, 10.0000°E)
Time: 06:25:02
(UTC+01:00)

Envisat - Pass Details

Date: 24 October 2021
Orbit: 764 x 766 km, 98.2° (Epoch: 04 December)

Event Time Altitude Azimuth Distance (km) Brightness Sun altitude
Rises 06:16:10 0° 17° (NNE) 3,246 6.5 -16.7°
Reaches altitude 10° 06:18:32 10° 21° (NNE) 2,315 5.8 -16.3°
Maximum altitude 06:23:34 59° 101° (E) 887 3.6 -15.5°
Drops below altitude 10° 06:28:34 10° 181° (S) 2,296 5.5 -14.7°
Sets 06:30:54 0° 185° (S) 3,218 6.2 -14.4°
